Time,TemperatureF,DewpointF,PressureIn,WindDirection,WindDirectionDegrees,WindSpeedMPH,WindSpeedGustMPH,Humidity,HourlyPrecipIn,Conditions,Clouds,dailyrainin,SolarRadiationWatts/m^2,SoftwareType,DateUTC
2013-08-22 00:03:00,75.0,61.0,-100.00,SSE,159,3.0,6.0,61,0.00,,,0.00,0.000000,,2013-08-22 05:03:00,
2013-08-22 00:43:00,75.0,62.0,-100.00,SSE,147,6.0,10.0,64,0.00,,,0.00,0.000000,,2013-08-22 05:43:00,
2013-08-22 00:53:00,75.0,62.0,-100.00,SSE,147,6.0,10.0,64,0.00,,,0.00,0.000000,,2013-08-22 05:53:00,
2013-08-22 01:02:00,75.0,62.0,-100.00,SSE,147,6.0,10.0,64,0.00,,,0.00,0.000000,,2013-08-22 06:02:00,
2013-08-22 01:42:00,74.0,63.0,-100.00,SE,136,5.0,8.0,68,0.00,,,0.00,0.000000,,2013-08-22 06:42:00,
2013-08-22 01:52:00,74.0,63.0,-100.00,SE,136,5.0,8.0,68,0.00,,,0.00,0.000000,,2013-08-22 06:52:00,
2013-08-22 02:02:00,74.0,63.0,-100.00,SE,136,5.0,8.0,68,0.00,,,0.00,0.000000,,2013-08-22 07:02:00,
2013-08-22 02:42:00,74.0,63.0,-100.00,SE,133,5.0,8.0,69,0.00,,,0.00,0.000000,,2013-08-22 07:42:00,
2013-08-22 02:53:00,74.0,63.0,-100.00,SE,133,5.0,8.0,69,0.00,,,0.00,0.000000,,2013-08-22 07:53:00,
2013-08-22 03:03:00,74.0,63.0,-100.00,SE,133,5.0,8.0,69,0.00,,,0.00,0.000000,,2013-08-22 08:03:00,
2013-08-22 03:43:00,73.0,62.0,-100.00,SE,136,3.0,6.0,69,0.00,,,0.00,0.000000,,2013-08-22 08:43:00,
2013-08-22 03:53:00,73.0,62.0,-100.00,SE,136,3.0,6.0,69,0.00,,,0.00,0.000000,,2013-08-22 08:53:00,
2013-08-22 04:01:00,73.0,62.0,-100.00,SE,136,3.0,6.0,69,0.00,,,0.00,0.000000,,2013-08-22 09:01:00,
2013-08-22 04:43:00,73.0,64.0,-100.00,SE,142,3.0,7.0,73,0.00,,,0.00,0.000000,,2013-08-22 09:43:00,
2013-08-22 04:54:00,73.0,64.0,-100.00,SE,142,3.0,7.0,73,0.00,,,0.00,0.000000,,2013-08-22 09:54:00,
2013-08-22 05:03:00,73.0,64.0,-100.00,SE,142,3.0,7.0,73,0.00,,,0.00,0.000000,,2013-08-22 10:03:00,
2013-08-22 05:08:00,73.0,65.0,-100.00,SE,146,4.0,6.0,77,0.00,,,0.00,0.000000,,2013-08-22 10:08:00,
2013-08-22 05:42:00,73.0,65.0,-100.00,SE,146,4.0,6.0,77,0.00,,,0.00,0.000000,,2013-08-22 10:42:00,
2013-08-22 07:42:00,71.0,65.0,-100.00,SE,144,2.0,6.0,81,0.00,,,0.00,9.000000,,2013-08-22 12:42:00,
2013-08-22 07:52:00,71.0,65.0,-100.00,SE,144,2.0,6.0,81,0.00,,,0.00,9.000000,,2013-08-22 12:52:00,
2013-08-22 08:02:00,71.0,65.0,-100.00,SE,144,2.0,6.0,81,0.00,,,0.00,9.000000,,2013-08-22 13:02:00,
2013-08-22 08:52:00,76.0,70.0,-100.00,WSW,250,2.0,7.0,82,0.00,,,0.00,126.000000,,2013-08-22 13:52:00,
2013-08-22 09:02:00,76.0,70.0,-100.00,WSW,250,2.0,7.0,82,0.00,,,0.00,126.000000,,2013-08-22 14:02:00,
2013-08-22 09:42:00,79.0,69.0,-100.00,SSW,209,5.0,7.0,72,0.00,,,0.00,341.000000,,2013-08-22 14:42:00,
2013-08-22 09:52:00,79.0,69.0,-100.00,SSW,209,5.0,7.0,72,0.00,,,0.00,341.000000,,2013-08-22 14:52:00,
2013-08-22 10:02:00,79.0,69.0,-100.00,SSW,209,5.0,7.0,72,0.00,,,0.00,341.000000,,2013-08-22 15:02:00,
2013-08-22 10:43:00,80.0,69.0,-100.00,SW,235,6.0,9.0,69,0.00,,,0.00,579.000000,,2013-08-22 15:43:00,
2013-08-22 10:55:00,80.0,69.0,-100.00,SW,235,6.0,9.0,69,0.00,,,0.00,579.000000,,2013-08-22 15:55:00,
2013-08-22 11:05:00,80.0,69.0,-100.00,SW,235,6.0,9.0,69,0.00,,,0.00,579.000000,,2013-08-22 16:05:00,
2013-08-22 11:43:00,81.0,69.0,-100.00,SW,228,6.0,10.0,66,0.00,,,0.00,802.000000,,2013-08-22 16:43:00,
2013-08-22 11:54:00,81.0,69.0,-100.00,SW,228,6.0,10.0,66,0.00,,,0.00,802.000000,,2013-08-22 16:54:00,
2013-08-22 12:02:00,81.0,69.0,-100.00,SW,228,6.0,10.0,66,0.00,,,0.00,802.000000,,2013-08-22 17:02:00,
2013-08-22 12:43:00,83.0,68.0,-100.00,SW,222,5.0,9.0,61,0.00,,,0.00,853.000000,,2013-08-22 17:43:00,
2013-08-22 12:53:00,83.0,68.0,-100.00,SW,222,5.0,9.0,61,0.00,,,0.00,853.000000,,2013-08-22 17:53:00,
2013-08-22 13:02:00,83.0,68.0,-100.00,SW,222,5.0,9.0,61,0.00,,,0.00,853.000000,,2013-08-22 18:02:00,
2013-08-22 13:43:00,81.0,69.0,-100.00,SSW,196,4.0,9.0,67,0.00,,,0.00,534.000000,,2013-08-22 18:43:00,
2013-08-22 13:52:00,81.0,69.0,-100.00,SSW,196,4.0,9.0,67,0.00,,,0.00,534.000000,,2013-08-22 18:52:00,
2013-08-22 14:02:00,81.0,69.0,-100.00,SSW,196,4.0,9.0,67,0.00,,,0.00,534.000000,,2013-08-22 19:02:00,
2013-08-22 14:42:00,86.0,65.0,-100.00,WNW,289,5.0,11.0,50,0.00,,,0.00,802.000000,,2013-08-22 19:42:00,
2013-08-22 14:53:00,86.0,65.0,-100.00,WNW,289,5.0,11.0,50,0.00,,,0.00,802.000000,,2013-08-22 19:53:00,
2013-08-22 15:02:00,86.0,65.0,-100.00,WNW,289,5.0,11.0,50,0.00,,,0.00,802.000000,,2013-08-22 20:02:00,
2013-08-22 15:42:00,85.0,65.0,-100.00,NNE,12,6.0,11.0,51,0.00,,,0.00,839.000000,,2013-08-22 20:42:00,
2013-08-22 15:52:00,85.0,65.0,-100.00,NNE,12,6.0,11.0,51,0.00,,,0.00,839.000000,,2013-08-22 20:52:00,
2013-08-22 16:02:00,85.0,65.0,-100.00,NNE,12,6.0,11.0,51,0.00,,,0.00,839.000000,,2013-08-22 21:02:00,
2013-08-22 16:44:00,83.0,64.0,-100.00,NE,41,6.0,10.0,53,0.00,,,0.00,698.000000,,2013-08-22 21:44:00,
2013-08-22 16:54:00,83.0,64.0,-100.00,NE,41,6.0,10.0,53,0.00,,,0.00,698.000000,,2013-08-22 21:54:00,
2013-08-22 17:05:00,83.0,64.0,-100.00,NE,41,6.0,10.0,53,0.00,,,0.00,698.000000,,2013-08-22 22:05:00,
2013-08-22 17:42:00,85.0,65.0,-100.00,ESE,105,5.0,7.0,52,0.00,,,0.00,687.000000,,2013-08-22 22:42:00,
2013-08-22 17:53:00,85.0,65.0,-100.00,ESE,105,5.0,7.0,52,0.00,,,0.00,687.000000,,2013-08-22 22:53:00,
2013-08-22 18:03:00,85.0,65.0,-100.00,ESE,105,5.0,7.0,52,0.00,,,0.00,687.000000,,2013-08-22 23:03:00,
2013-08-22 18:42:00,83.0,66.0,-100.00,ENE,68,4.0,8.0,57,0.00,,,0.00,463.000000,,2013-08-22 23:42:00,
2013-08-22 18:53:00,83.0,66.0,-100.00,ENE,68,4.0,8.0,57,0.00,,,0.00,463.000000,,2013-08-22 23:53:00,
2013-08-22 19:02:00,83.0,66.0,-100.00,ENE,68,4.0,8.0,57,0.00,,,0.00,463.000000,,2013-08-23 00:02:00,
2013-08-22 19:42:00,80.0,67.0,-100.00,NE,46,5.0,7.0,64,0.00,,,0.00,211.000000,,2013-08-23 00:42:00,
2013-08-22 19:52:00,80.0,67.0,-100.00,NE,46,5.0,7.0,64,0.00,,,0.00,211.000000,,2013-08-23 00:52:00,
2013-08-22 20:02:00,80.0,67.0,-100.00,NE,46,5.0,7.0,64,0.00,,,0.00,211.000000,,2013-08-23 01:02:00,
2013-08-22 20:42:00,77.0,64.0,-100.00,NE,50,5.0,9.0,65,0.00,,,0.00,43.000000,,2013-08-23 01:42:00,
2013-08-22 20:52:00,77.0,64.0,-100.00,NE,50,5.0,9.0,65,0.00,,,0.00,43.000000,,2013-08-23 01:52:00,
2013-08-22 21:02:00,77.0,64.0,-100.00,NE,50,5.0,9.0,65,0.00,,,0.00,43.000000,,2013-08-23 02:02:00,
2013-08-22 21:43:00,76.0,63.0,-100.00,NE,52,5.0,9.0,65,0.00,,,0.00,0.000000,,2013-08-23 02:43:00,
2013-08-22 21:52:00,76.0,63.0,-100.00,NE,52,5.0,9.0,65,0.00,,,0.00,0.000000,,2013-08-23 02:52:00,
2013-08-22 22:02:00,76.0,63.0,-100.00,NE,52,5.0,9.0,65,0.00,,,0.00,0.000000,,2013-08-23 03:02:00,
2013-08-22 22:44:00,76.0,62.0,-100.00,NE,35,5.0,10.0,63,0.00,,,0.00,0.000000,,2013-08-23 03:44:00,
2013-08-22 22:55:00,76.0,62.0,-100.00,NE,35,5.0,10.0,63,0.00,,,0.00,0.000000,,2013-08-23 03:55:00,
2013-08-22 23:04:00,76.0,62.0,-100.00,NE,35,5.0,10.0,63,0.00,,,0.00,0.000000,,2013-08-23 04:04:00,
2013-08-22 23:43:00,76.0,63.0,-100.00,ENE,73,3.0,9.0,64,0.00,,,0.00,0.000000,,2013-08-23 04:43:00,
2013-08-22 23:54:00,76.0,63.0,-100.00,ENE,73,3.0,9.0,64,0.00,,,0.00,0.000000,,2013-08-23 04:54:00,